Wind_Speed
11 11 11 11 12 12 12 12 12 13 13 14 14 14 14 14 14 15 15 15 15 15 15 15 14 14 14 14 14 14 13 13 13 13 12 11 12 12 12 12 12 12 12
11 11 11 12 12 12 12 13 13 13 13 14 14 14 14 14 14 14 15 15 14 14 14 15 14 14 14 14 13 13 12 12 12 12 11 10 10 10 11 11 11 12 12
12 12 12 12 12 12 13 13 13 13 13 14 14 13 13 14 14 14 14 14 14 14 14 14 14 14 14 14 13 13 12 11 11 11 10 10 10 10 10 10 11 11 12
13 13 13 13 13 13 13 13 14 14 14 14 14 14 14 14 14 14 14 14 15 14 14 14 14 14 14 14 13 13 12 12 11 11 10 10 11 11 11 11 11 12 12
14 14 14 14 14 14 14 14 14 14 14 14 15 15 15 15 15 15 15 15 15 15 15 15 15 14 14 14 13 13 13 12 12 11 11 11 12 12 12 12 12 13 13
14 14 14 15 15 15 15 14 14 14 14 14 14 15 15 15 15 15 15 16 15 15 15 15 15 15 15 14 14 13 13 13 12 12 12 12 12 12 13 13 13 13 13
14 14 14 14 14 14 14 14 15 15 14 14 15 15 14 14 15 15 15 16 16 16 15 15 15 15 15 15 15 14 14 13 13 13 12 12 12 12 13 14 14 14 14
13 14 14 15 15 15 15 15 15 15 15 15 14 14 14 13 13 14 15 16 15 16 17 17 16 16 15 15 16 16 15 14 14 13 12 12 12 12 13 14 14 14 14
14 14 15 15 15 15 15 16 15 15 15 15 14 13 13 13 13 14 14 14 14 15 16 17 17 17 16 16 16 16 16 15 15 14 14 13 13 13 13 13 13 13 13
14 14 15 15 15 16 16 16 16 16 15 15 14 14 14 14 15 15 15 14 14 15 16 17 18 18 18 17 17 17 16 16 16 16 15 15 14 14 14 14 14 14 13
15 15 15 15 16 16 16 17 16 16 16 15 15 15 15 15 15 16 15 15 14 15 16 17 18 18 18 18 18 18 17 17 17 17 16 16 15 15 15 14 14 14 13
15 15 15 15 16 17 17 17 17 16 16 16 16 16 16 16 16 16 16 16 15 16 16 16 18 18 18 18 18 18 18 17 18 18 17 16 16 15 14 14 14 13 13
15 15 16 16 17 18 17 17 17 17 17 17 17 17 17 17 17 17 17 17 15 15 16 16 17 18 18 19 19 19 19 19 19 18 17 16 16 15 14 14 14 14 14
15 16 16 17 18 18 18 17 17 17 17 18 18 18 18 17 17 17 18 18 17 16 16 17 17 17 17 17 17 18 18 18 18 17 18 17 17 16 16 16 15 15 15
16 16 17 18 18 18 18 18 18 18 18 18 18 18 18 18 18 18 18 18 18 18 18 18 18 18 18 18 18 18 18 19 18 19 18 18 18 18 17 17 16 16 16
17 18 18 19 19 19 19 19 19 19 19 19 19 19 18 19 19 19 19 19 19 19 19 19 19 19 19 18 19 19 19 19 19 19 19 19 19 18 18 18 18 17 17
19 19 19 19 19 20 20 20 20 19 19 19 20 20 20 19 20 20 20 20 20 20 20 20 19 19 20 20 20 20 20 19 19 20 20 21 20 20 19 20 19 18 18
20 20 21 21 20 21 21 20 20 20 20 20 20 20 20 21 21 21 21 21 21 20 20 20 19 20 20 21 21 21 21 20 20 21 21 22 21 21 21 21 21 20 20
21 22 22 22 21 21 21 21 20 20 21 21 21 22 21 21 21 22 21 21 22 22 21 20 20 20 20 21 22 22 22 22 21 22 22 23 22 23 23 23 22 22 22
22 22 22 22 22 22 22 22 21 21 22 22 22 23 23 22 22 22 22 22 23 23 23 22 22 21 21 22 23 23 24 24 23 23 24 24 24 24 24 24 24 24 24
22 23 23 22 22 22 22 22 23 22 22 22 23 23 23 23 22 23 23 23 23 23 23 23 23 23 23 24 24 25 25 25 25 25 25 25 25 25 26 26 25 25 25
24 24 24 23 23 23 23 23 23 23 23 23 23 23 24 24 24 23 23 24 23 23 23 23 23 24 24 25 26 26 26 26 27 27 27 26 27 27 27 27 27 27 27
25 25 25 24 24 24 24 24 23 23 23 23 24 24 25 25 25 26 26 25 25 25 25 24 25 25 26 26 26 27 28 28 28 28 28 28 28 27 27 28 28 28 28
25 25 25 24 24 24 25 25 25 25 24 24 24 24 24 25 25 25 26 26 26 25 25 25 26 26 27 27 28 28 29 29 29 29 29 29 29 28 28 28 29 30 30
26 26 25 25 26 25 26 26 26 26 25 25 25 25 25 24 25 26 27 27 27 27 27 27 27 27 27 27 28 29 29 30 30 30 30 30 31 30 30 30 31 31 31
27 27 27 27 27 27 27 27 27 27 26 26 26 26 26 26 27 28 28 29 29 28 28 28 28 28 27 27 27 28 29 30 30 31 31 31 32 32 31 31 32 33 33
Wind_Direction
283 284 287 286 287 285 280 279 279 279 277 274 273 274 275 271 271 269 269 269 267 265 264 263 263 265 266 268 269 271 269 267 267 266 268 264 257 247 247 250 249 249 251
280 282 287 291 292 291 286 283 281 279 280 280 277 275 275 272 271 271 269 267 265 263 263 263 262 263 263 265 267 269 268 265 261 262 262 258 253 249 249 248 248 250 249
280 281 283 288 290 289 287 284 281 280 281 281 280 276 275 273 271 270 269 268 266 264 264 262 263 263 263 263 264 266 266 263 261 258 257 254 249 246 244 244 247 247 246
282 282 282 285 287 286 284 284 283 280 282 282 282 280 277 274 273 271 268 269 268 266 263 260 262 263 264 263 262 262 260 258 258 256 256 253 251 250 247 248 248 249 248
282 283 284 285 287 286 284 282 282 281 282 282 283 281 278 274 273 272 267 265 265 264 261 259 261 261 262 262 261 259 257 255 254 254 255 256 255 252 251 248 249 252 252
281 282 284 285 286 287 285 283 283 281 281 280 281 281 277 274 273 272 267 264 261 260 259 257 257 259 260 259 258 257 256 255 254 253 254 256 255 254 254 251 250 253 255
283 283 284 285 284 285 286 286 285 284 282 283 282 281 279 275 272 274 269 267 263 262 260 257 256 257 256 257 257 257 254 254 255 255 254 254 255 255 254 253 251 253 257
283 283 283 283 282 283 284 285 285 285 283 282 282 279 277 277 276 277 272 267 265 264 262 259 258 255 252 254 255 255 251 250 252 252 251 253 256 257 257 256 253 253 255
286 284 283 283 283 283 285 285 285 287 284 282 282 279 276 274 275 276 272 267 263 263 260 259 257 253 253 253 251 252 251 250 249 249 252 254 256 256 260 257 254 254 255
288 286 284 284 284 285 287 288 287 285 283 281 279 279 279 278 277 275 272 268 260 258 256 256 254 252 252 252 250 251 251 250 251 253 254 254 255 256 256 257 257 256 258
289 288 286 285 284 286 287 288 287 284 281 279 278 278 278 279 280 277 275 270 264 260 258 255 253 253 253 252 250 251 250 252 254 254 255 255 254 253 253 254 255 258 260
286 288 287 286 287 287 288 287 285 282 280 279 278 278 278 277 279 277 275 271 266 263 260 256 253 252 251 251 251 251 250 252 253 252 253 254 252 250 251 253 254 256 259
289 289 288 288 288 289 288 287 283 281 279 279 279 279 277 276 275 273 271 268 267 265 260 258 256 253 250 250 251 251 251 251 252 251 251 251 251 249 250 251 254 256 260
289 290 290 289 289 292 289 287 284 282 281 281 280 279 278 276 274 271 268 265 264 265 262 258 257 256 254 252 251 251 248 248 250 251 251 251 250 250 251 252 253 256 260
288 288 290 291 292 292 290 287 284 283 281 280 280 280 278 277 275 273 269 265 263 262 261 260 258 256 255 254 251 251 248 248 249 251 251 250 249 250 250 252 253 255 260
287 287 288 290 291 290 287 285 284 282 280 278 277 278 278 278 275 274 270 266 264 263 262 259 259 254 254 253 252 252 250 247 247 248 250 250 248 250 251 253 255 257 258
284 286 287 289 289 289 287 283 282 281 279 278 277 276 275 275 274 273 270 265 263 264 262 259 257 255 254 252 253 253 251 247 247 246 249 250 249 249 252 253 253 256 258
283 285 287 290 289 288 288 284 281 280 279 277 276 276 275 275 273 273 270 265 263 263 262 260 258 256 255 254 253 250 247 248 248 248 249 250 250 250 251 253 253 255 257
286 285 288 288 287 285 285 283 281 280 278 276 275 274 275 274 273 271 270 267 263 262 262 261 260 258 258 257 253 249 247 249 249 249 249 251 252 251 251 253 254 255 256
287 287 288 288 287 285 285 283 281 281 279 276 275 274 273 273 272 271 270 267 264 264 263 262 260 261 260 257 254 251 250 252 251 251 251 253 255 252 252 253 255 256 257
286 288 288 288 286 285 284 283 282 282 280 277 275 274 272 272 272 270 268 266 264 265 265 263 262 264 263 258 254 252 252 253 252 253 253 255 256 254 254 255 256 257 257
287 288 289 286 285 284 284 284 282 282 279 276 275 273 272 271 270 269 267 265 265 266 266 265 264 266 264 260 257 255 254 254 254 254 255 254 252 254 255 256 256 257 258
286 287 288 287 285 283 282 282 282 283 281 278 276 274 271 271 271 268 266 266 265 265 267 266 266 265 265 261 259 257 257 257 257 255 254 254 253 253 255 256 256 258 258
284 286 286 286 285 282 281 281 281 282 281 280 280 278 275 273 272 270 267 265 265 265 268 269 266 266 265 262 259 258 258 257 256 255 257 256 255 255 257 258 258 258 258
283 285 285 283 283 281 280 279 280 280 280 278 278 278 276 273 271 270 268 266 266 267 269 270 265 264 264 262 259 259 258 258 257 257 258 259 257 257 257 259 260 259 260
281 284 284 284 283 282 281 279 279 278 278 278 276 276 276 274 271 268 268 267 267 267 268 268 264 264 264 262 261 259 260 259 258 257 258 259 259 259 258 259 260 260 260
Height
5848 5847 5846 5846 5845 5844 5843 5842 5842 5841 5840 5839 5839 5838 5838 5838 5837 5837 5837 5837 5838 5838 5838 5838 5838 5838 5838 5838 5839 5838 5838 5838 5838 5837 5836 5834 5834 5836 5838 5839 5841 5842 5843
5845 5844 5844 5843 5842 5841 5840 5839 5838 5837 5837 5836 5835 5835 5834 5834 5834 5834 5834 5834 5834 5834 5834 5834 5835 5835 5835 5835 5835 5835 5835 5835 5835 5835 5834 5833 5833 5834 5836 5837 5838 5839 5840
5842 5841 5840 5840 5838 5837 5836 5836 5835 5834 5833 5832 5832 5831 5831 5831 5830 5830 5830 5830 5830 5830 5830 5831 5831 5831 5831 5832 5832 5832 5832 5832 5832 5832 5832 5832 5832 5833 5834 5835 5836 5836 5837
5839 5838 5837 5836 5835 5834 5833 5832 5831 5830 5829 5829 5828 5827 5827 5827 5827 5827 5826 5826 5826 5827 5827 5827 5827 5828 5828 5828 5828 5829 5829 5829 5829 5829 5830 5830 5830 5831 5832 5833 5833 5834 5835
5835 5834 5833 5832 5831 5830 5829 5828 5827 5826 5826 5825 5824 5823 5823 5823 5823 5822 5822 5822 5822 5822 5823 5823 5824 5824 5824 5824 5825 5825 5826 5826 5827 5827 5827 5828 5828 5829 5829 5830 5831 5831 5832
5831 5830 5830 5829 5828 5827 5826 5825 5824 5823 5822 5821 5820 5819 5818 5818 5818 5818 5818 5818 5818 5818 5818 5819 5820 5820 5821 5821 5821 5822 5822 5823 5823 5824 5824 5825 5825 5826 5827 5827 5828 5828 5829
5827 5826 5826 5825 5824 5823 5822 5821 5820 5818 5818 5816 5816 5815 5814 5813 5813 5813 5813 5812 5813 5813 5814 5815 5815 5816 5817 5817 5818 5818 5819 5819 5820 5821 5821 5822 5822 5823 5823 5824 5825 5825 5826
5823 5822 5821 5820 5820 5819 5818 5817 5816 5814 5813 5812 5811 5810 5810 5809 5808 5808 5808 5808 5808 5809 5809 5810 5811 5812 5812 5813 5814 5814 5815 5816 5816 5817 5818 5818 5819 5819 5820 5820 5821 5822 5822
5819 5818 5817 5816 5815 5814 5813 5812 5811 5810 5808 5808 5807 5806 5806 5805 5805 5804 5803 5803 5803 5804 5805 5805 5806 5807 5808 5809 5809 5810 5811 5812 5813 5813 5814 5815 5815 5816 5816 5817 5818 5818 5819
5815 5814 5813 5812 5811 5810 5809 5808 5806 5805 5804 5803 5803 5802 5801 5801 5800 5800 5799 5798 5798 5799 5800 5800 5801 5802 5803 5804 5805 5806 5807 5808 5809 5809 5810 5811 5812 5812 5813 5814 5814 5815 5815
5811 5810 5809 5808 5807 5806 5804 5803 5801 5800 5800 5799 5798 5798 5797 5796 5795 5795 5794 5794 5794 5794 5794 5795 5796 5796 5797 5799 5800 5801 5802 5803 5804 5805 5806 5807 5808 5809 5809 5810 5811 5811 5812
5807 5806 5804 5803 5802 5801 5799 5798 5797 5796 5795 5794 5793 5793 5792 5791 5790 5789 5788 5788 5788 5789 5789 5790 5790 5791 5792 5793 5794 5796 5797 5798 5799 5800 5802 5803 5804 5805 5805 5806 5807 5807 5808
5802 5801 5800 5799 5797 5796 5794 5793 5791 5791 5790 5789 5788 5788 5787 5786 5785 5784 5783 5783 5783 5783 5784 5784 5785 5785 5786 5787 5789 5790 5791 5793 5794 5796 5797 5798 5799 5800 5801 5802 5803 5803 5804
5798 5797 5795 5794 5792 5791 5789 5787 5786 5785 5785 5784 5783 5782 5781 5781 5780 5779 5778 5778 5778 5778 5778 5779 5779 5780 5780 5781 5783 5784 5786 5788 5789 5790 5792 5793 5795 5796 5797 5798 5798 5799 5799
5793 5791 5790 5789 5787 5785 5784 5782 5781 5780 5779 5778 5777 5776 5776 5775 5774 5773 5773 5773 5773 5773 5773 5773 5773 5774 5774 5776 5777 5778 5780 5782 5783 5785 5786 5788 5789 5791 5792 5793 5793 5794 5795
5787 5786 5785 5783 5782 5780 5778 5777 5775 5774 5773 5772 5771 5771 5770 5769 5768 5768 5767 5767 5767 5767 5767 5767 5767 5768 5769 5770 5771 5772 5774 5776 5778 5779 5781 5782 5784 5785 5786 5787 5788 5789 5789
5782 5780 5778 5777 5775 5774 5772 5771 5769 5768 5767 5766 5765 5764 5764 5763 5762 5762 5761 5761 5761 5761 5761 5761 5761 5762 5763 5764 5765 5766 5768 5769 5771 5773 5775 5776 5778 5779 5781 5782 5783 5783 5784
5776 5774 5772 5770 5769 5767 5765 5764 5763 5762 5761 5760 5759 5758 5757 5757 5756 5755 5755 5755 5754 5754 5755 5755 5755 5756 5757 5757 5758 5760 5761 5763 5765 5767 5769 5770 5772 5773 5774 5775 5777 5778 5778
5769 5768 5766 5764 5762 5760 5759 5758 5757 5755 5754 5753 5752 5752 5751 5750 5750 5749 5749 5748 5748 5748 5748 5749 5749 5749 5750 5751 5752 5753 5755 5757 5759 5760 5762 5763 5765 5766 5768 5769 5770 5771 5772
5763 5761 5759 5757 5755 5753 5752 5751 5750 5749 5748 5747 5746 5745 5744 5744 5743 5743 5742 5742 5742 5742 5742 5743 5743 5743 5743 5744 5745 5746 5748 5750 5752 5753 5755 5757 5758 5759 5760 5762 5763 5764 5764
5756 5754 5752 5750 5748 5747 5745 5744 5743 5741 5740 5739 5738 5738 5737 5737 5736 5736 5736 5735 5735 5735 5736 5736 5736 5736 5736 5736 5738 5739 5741 5742 5744 5746 5748 5750 5750 5751 5752 5754 5755 5756 5757
5749 5747 5745 5743 5741 5740 5738 5737 5736 5734 5733 5732 5731 5730 5730 5729 5729 5729 5729 5729 5729 5728 5729 5728 5729 5729 5729 5729 5730 5731 5733 5735 5737 5739 5741 5742 5742 5743 5745 5746 5747 5748 5749
5742 5740 5738 5736 5734 5733 5732 5730 5729 5727 5726 5725 5724 5723 5722 5722 5721 5721 5721 5721 5721 5721 5721 5721 5721 5721 5721 5722 5722 5724 5725 5727 5729 5730 5732 5734 5734 5736 5736 5737 5739 5740 5740
5734 5733 5731 5729 5727 5726 5724 5723 5721 5720 5719 5717 5716 5715 5714 5714 5714 5713 5713 5713 5714 5714 5713 5713 5713 5713 5713 5714 5715 5716 5717 5719 5720 5722 5723 5725 5726 5727 5728 5729 5730 5731 5731
5727 5725 5723 5721 5720 5718 5717 5715 5713 5712 5711 5710 5709 5708 5707 5707 5706 5706 5706 5706 5705 5705 5705 5705 5705 5705 5705 5706 5707 5708 5709 5710 5712 5713 5714 5716 5717 5719 5720 5720 5720 5721 5722
5718 5716 5715 5713 5712 5710 5708 5707 5705 5704 5703 5702 5701 5700 5699 5698 5698 5697 5697 5697 5697 5697 5697 5696 5696 5697 5697 5698 5698 5699 5700 5701 5702 5704 5705 5707 5708 5709 5710 5710 5710 5711 5712